Theta_e
304 295 293 293 295 297 298 299 299 300 301 300 299 298 296 297 298 300 302 303 304 301 300 301 301 302 306 307 307 310 312 310 313 315 317 317 317 319 319 321 323 327 327 333 335 337 338 338 339 340 340 340 341 342 342 340 341 339 337 339 338 339 339 339 341 340 340 337 337 338 340 337 339 338 341 342 343 342 344 344 343 342 342 341 340 341
302 294 295 297 298 299 298 300 300 299 300 300 299 298 296 297 296 300 301 303 304 302 299 302 301 303 306 308 309 310 310 308 312 314 315 315 318 319 321 325 325 325 330 333 334 336 337 337 338 338 338 339 337 338 340 340 340 339 339 338 340 340 340 342 344 343 342 341 340 337 337 339 338 338 339 339 341 343 344 344 343 342 341 341 340 339
295 293 296 299 300 300 300 299 300 299 298 299 298 298 296 296 300 302 303 304 303 301 299 301 301 303 306 308 309 310 309 313 316 315 316 317 317 321 322 323 322 326 328 331 332 335 335 335 336 336 336 336 337 337 337 339 340 340 340 341 339 338 339 339 339 338 339 343 344 342 343 341 340 342 343 342 343 344 343 343 343 342 342 341 341 339
291 294 299 301 300 298 298 299 299 299 299 297 297 297 295 298 297 295 302 303 303 301 300 300 303 304 307 309 310 312 311 315 315 317 321 321 318 320 321 322 322 323 325 328 329 330 331 332 333 334 334 335 336 335 336 337 337 338 338 340 341 341 342 342 342 341 344 343 344 345 344 344 341 339 343 344 344 343 342 340 341 340 342 340 339 337
294 298 301 300 299 298 297 298 298 297 296 298 298 298 298 298 299 299 299 302 303 303 304 301 302 303 306 305 305 310 315 315 317 318 321 323 324 322 322 323 323 324 327 327 327 328 329 329 330 331 333 334 334 334 334 335 336 337 337 339 340 340 340 342 341 344 344 343 341 342 343 342 342 341 340 339 339 340 341 340 340 340 340 339 339 340
297 301 302 299 298 298 297 296 298 298 295 297 299 300 300 300 299 300 302 300 298 296 300 299 296 297 303 305 305 309 310 312 319 319 317 321 323 324 321 321 323 324 330 326 326 326 327 328 330 330 331 332 332 332 334 336 336 337 337 338 339 341 341 340 341 343 342 343 342 341 338 337 337 336 337 336 336 339 339 338 341 342 340 340 340 340
298 301 300 298 297 297 297 297 299 299 296 295 297 302 302 301 301 300 299 298 293 291 297 305 294 291 303 302 306 308 309 312 314 315 316 319 320 321 321 322 322 324 325 325 326 326 326 327 327 328 328 330 331 332 335 336 336 337 337 338 339 340 341 342 341 343 344 342 342 340 339 338 337 335 337 343 345 344 345 345 343 341 342 340 339 339
300 299 299 299 298 297 296 295 299 300 296 294 302 302 302 301 300 300 299 298 296 300 301 303 300 295 294 300 306 308 308 308 309 310 312 318 321 321 322 323 323 323 322 322 322 323 323 324 324 324 326 327 329 332 334 335 336 336 336 338 338 340 340 342 342 343 343 341 341 340 339 338 337 337 338 340 342 345 346 342 342 342 343 341 339 339
299 298 298 297 297 296 295 298 300 301 297 298 302 303 301 301 300 301 299 297 298 297 293 297 302 295 294 300 305 306 303 307 309 312 314 318 319 318 318 319 319 320 320 321 320 320 321 322 323 324 325 326 327 329 329 331 333 335 335 336 337 338 338 338 341 340 341 341 340 339 338 337 338 338 339 339 340 341 344 341 342 341 341 342 340 338
300 300 300 299 297 295 299 300 301 301 297 301 304 304 302 302 301 301 298 297 296 294 290 295 299 292 293 300 301 305 304 304 309 313 314 316 316 316 316 317 318 319 319 320 320 320 320 321 322 324 325 325 326 328 328 329 331 331 331 332 333 332 333 335 336 337 337 338 339 338 337 336 336 338 339 339 338 339 343 339 340 340 340 340 340 338
301 305 305 301 297 299 300 301 302 302 302 304 303 300 299 299 299 300 299 297 295 289 291 296 298 296 290 298 300 300 302 306 308 312 313 314 315 316 316 316 316 316 317 317 318 319 320 321 322 323 322 323 325 326 326 327 328 329 328 328 329 330 330 332 332 333 333 334 335 335 336 336 334 335 336 336 336 337 337 336 338 339 338 340 338 338
300 301 300 302 303 302 302 300 303 304 303 302 299 298 296 295 297 296 296 297 289 287 293 298 298 298 288 295 302 307 311 310 311 310 310 311 312 313 313 314 315 315 316 317 317 317 318 319 320 321 320 321 322 324 324 325 326 327 327 327 326 328 328 329 329 330 330 331 332 333 333 334 335 335 335 334 334 336 335 335 334 339 338 338 338 338
296 297 300 302 304 301 299 298 298 301 302 300 298 296 290 288 289 286 291 287 287 287 294 298 298 295 293 300 304 307 311 312 314 313 312 311 311 312 312 313 314 315 315 316 316 316 317 317 318 318 319 320 321 321 322 322 324 325 325 325 325 325 327 327 328 328 329 329 329 330 331 332 333 335 335 334 334 335 335 336 335 334 332 332 334 336
294 299 299 300 302 303 301 294 295 295 298 297 294 293 290 286 284 283 286 289 289 293 297 297 300 293 298 307 310 309 311 314 315 314 313 311 311 311 312 312 313 313 314 314 315 316 316 317 317 318 318 319 320 320 322 322 323 323 323 324 324 324 326 326 327 327 327 328 328 329 330 331 331 332 333 334 334 335 335 335 335 334 333 331 331 333
286 288 294 297 294 302 301 299 299 297 297 296 299 296 293 291 287 283 286 283 286 289 294 299 293 291 297 297 309 310 312 314 313 312 312 312 311 312 313 313 312 312 313 314 314 314 315 316 317 317 318 319 319 320 321 322 322 322 322 322 323 323 324 325 325 325 324 325 325 326 328 329 329 329 329 331 334 334 335 335 334 333 333 332 333 333
291 291 297 301 302 302 299 302 303 299 297 298 299 299 294 292 297 288 290 290 291 290 290 293 292 299 300 308 311 310 311 310 311 310 310 309 310 311 311 311 311 312 313 313 313 314 315 316 317 317 318 318 318 319 321 320 322 322 322 323 323 322 323 322 323 323 324 324 325 326 326 326 327 328 329 330 333 333 334 334 333 332 332 332 333 333
292 290 298 300 302 301 301 302 301 302 289 296 296 292 295 301 298 291 291 297 293 290 287 296 296 300 305 308 308 309 308 308 309 309 309 308 309 310 309 310 310 311 312 312 313 313 314 315 316 316 316 317 318 319 320 320 321 322 323 322 320 320 321 321 322 322 323 324 324 325 325 325 326 326 327 329 332 333 333 333 334 332 331 332 334 334
291 291 298 298 296 301 303 303 302 302 302 298 292 296 302 304 301 295 286 289 288 286 288 298 293 294 296 289 307 306 305 306 306 307 307 308 308 307 308 309 310 310 311 312 313 313 314 314 314 315 316 316 317 318 319 320 323 323 323 321 320 319 319 319 319 320 322 322 323 323 324 325 325 326 326 328 330 333 333 332 332 333 332 332 333 333
298 289 295 299 298 301 303 301 299 302 303 298 296 304 295 289 288 295 290 284 284 284 286 295 296 297 298 296 301 302 303 304 305 306 306 306 307 307 307 308 309 310 310 311 312 312 312 312 313 314 315 315 316 318 319 320 320 321 322 325 321 319 319 320 320 321 322 322 322 322 323 324 324 325 325 327 328 330 331 331 331 331 332 333 333 333
298 289 291 299 298 300 299 298 290 295 301 302 303 299 302 297 294 290 290 293 291 285 286 289 294 290 300 301 303 304 305 305 305 305 305 306 306 306 307 307 308 309 309 310 311 311 311 312 312 313 314 314 316 317 319 320 320 319 320 320 320 319 319 320 321 322 322 322 322 322 323 324 323 323 323 324 325 326 329 329 330 330 331 331 332 333
293 299 287 294 300 299 292 295 293 295 293 295 296 295 296 297 300 297 297 292 290 287 287 288 287 293 301 308 306 306 307 306 306 305 305 306 307 307 307 307 308 309 309 310 310 310 311 311 313 313 315 316 316 318 319 320 318 319 320 321 319 318 318 319 321 322 322 323 322 322 322 322 323 323 323 323 323 324 324 325 327 329 330 332 330 332
293 294 289 293 293 292 293 298 298 298 298 296 296 294 295 293 291 288 287 296 294 290 287 287 286 297 304 311 309 308 308 308 308 306 305 305 306 306 307 308 308 308 309 309 309 310 310 311 312 314 315 315 315 315 317 318 318 318 317 317 317 318 317 318 319 321 322 321 322 322 322 322 322 322 322 322 322 322 321 322 324 326 328 330 331 331
301 298 294 289 292 293 296 300 302 302 302 299 298 295 297 296 296 292 286 290 294 294 296 294 291 292 307 310 311 309 308 308 307 306 305 305 306 306 307 308 309 309 308 308 309 309 310 311 312 313 313 313 314 315 316 316 316 316 317 317 317 317 318 319 319 320 321 320 320 320 320 321 321 321 321 320 320 320 320 320 321 323 324 325 328 330
303 294 291 292 295 298 299 301 301 302 301 298 297 298 297 294 296 295 293 297 292 293 290 291 288 294 306 311 310 310 308 307 307 306 305 305 305 306 306 306 307 307 307 308 309 310 311 311 312 312 312 312 313 314 314 315 314 316 316 316 316 317 317 318 318 319 320 320 320 320 320 319 320 320 321 318 318 319 319 319 320 321 322 323 325 326
292 295 293 288 287 289 292 295 296 299 299 296 295 297 297 298 298 299 298 303 290 294 293 290 286 292 304 310 309 307 306 305 305 306 306 304 305 305 305 306 306 306 307 307 308 308 309 310 310 310 311 311 311 312 314 313 313 314 315 315 315 315 317 317 318 318 318 319 319 318 318 318 318 318 318 317 318 317 318 318 318 319 320 321 320 322
295 294 292 286 283 281 281 282 285 288 292 296 297 297 297 298 298 296 290 293 288 294 294 292 291 299 304 307 306 305 304 303 304 305 306 306 304 304 304 305 305 306 306 307 308 308 308 309 310 310 311 311 311 311 312 313 313 314 314 315 317 315 316 316 317 317 317 317 317 316 317 317 316 316 316 316 316 316 316 317 317 317 317 318 318 319
297 298 296 293 290 287 289 292 296 296 295 292 294 296 296 297 298 298 298 292 289 292 290 296 297 296 299 302 303 303 303 302 302 303 303 303 304 304 304 304 305 305 306 306 307 307 308 308 309 309 310 310 311 312 312 312 312 312 313 314 315 315 316 316 316 316 316 316 316 315 315 315 315 316 315 315 315 315 314 314 315 315 314 315 315 315
297 294 295 296 295 295 295 295 297 296 294 294 294 294 296 296 298 298 292 291 298 293 288 298 300 297 298 301 301 301 301 302 302 302 302 302 303 303 303 304 304 305 306 307 307 307 307 307 308 308 309 310 310 310 310 311 311 311 311 311 312 314 315 316 315 314 314 315 314 314 314 315 315 315 314 314 314 313 313 313 313 313 313 313 313 313
296 291 299 299 297 298 297 297 298 296 296 296 296 296 295 296 297 296 298 299 299 291 289 298 301 299 299 301 301 301 301 301 301 302 302 303 303 303 303 303 304 304 305 305 306 306 306 306 306 307 308 308 308 308 309 309 309 310 311 311 311 312 313 314 314 313 313 313 313 313 314 314 314 314 313 313 312 312 311 311 311 311 311 311 311 311
298 296 300 297 295 296 297 298 297 296 296 296 295 297 297 297 297 298 299 302 302 300 302 302 301 299 300 299 301 302 303 302 302 303 303 302 302 303 303 303 303 304 304 304 304 305 305 305 306 306 306 307 306 306 307 307 307 308 309 310 311 311 313 313 313 312 312 312 312 312 313 313 313 312 312 312 311 311 311 310 310 310 310 309 310 309
298 294 300 299 295 295 298 300 298 297 296 294 296 297 297 297 299 301 302 303 304 302 302 300 297 294 299 301 299 301 301 301 301 300 301 302 302 303 302 302 303 303 303 303 303 303 304 305 305 305 305 305 306 306 306 307 307 308 309 309 310 310 311 312 311 311 311 310 311 312 312 312 311 311 311 311 311 311 310 309 310 309 308 308 308 307
300 295 302 298 291 291 298 298 298 299 297 297 296 299 301 300 299 302 299 304 302 299 299 297 293 290 295 298 298 298 299 299 298 299 300 301 302 302 302 302 302 302 301 301 302 302 303 303 303 304 304 305 305 306 306 306 306 307 307 308 308 310 311 311 310 310 309 309 310 310 310 310 310 310 310 310 309 309 309 309 308 308 307 307 306 306
299 298 294 294 290 289 296 298 298 298 296 292 294 297 300 302 303 304 305 306 304 302 295 292 293 295 295 297 295 296 297 298 298 298 299 300 301 301 301 301 301 301 301 301 301 302 302 302 303 304 305 305 305 305 306 306 306 305 306 307 308 309 310 310 309 308 308 308 308 309 310 309 309 309 309 309 309 309 309 308 307 306 306 305 306 305
301 299 294 297 288 290 296 296 296 291 285 287 299 302 302 299 300 297 296 298 300 301 298 300 295 296 296 296 295 294 295 295 297 299 301 300 300 300 300 300 300 300 301 301 302 302 303 303 304 304 306 308 307 306 307 306 305 307 308 307 307 308 309 308 308 307 307 307 307 308 308 308 308 308 308 308 308 308 307 306 306 306 306 306 305 304
299 298 295 298 291 289 291 294 288 284 285 294 301 303 305 303 301 297 297 297 296 296 296 294 295 295 296 296 296 295 295 296 297 297 299 300 301 299 299 299 299 299 300 301 301 302 303 303 305 306 305 305 306 307 307 306 307 311 308 311 306 307 307 307 307 306 306 306 306 307 307 307 307 307 307 307 307 307 306 306 306 305 305 305 304 303
295 294 293 290 292 292 289 287 282 284 293 298 301 303 304 302 300 297 294 296 297 297 296 294 295 296 295 294 294 294 294 294 295 296 297 298 300 299 299 298 299 299 300 301 301 302 303 304 304 304 305 306 305 305 305 306 307 306 305 306 307 306 306 306 305 305 305 305 305 305 306 306 306 306 306 306 306 306 305 306 305 305 305 304 304 303
301 297 295 290 295 287 288 287 286 293 293 295 297 299 300 295 297 295 287 292 298 298 297 295 293 293 292 292 293 293 293 293 291 292 297 298 298 299 299 299 300 301 302 303 304 304 304 304 304 305 305 305 305 305 305 305 306 305 304 304 304 304 305 305 304 304 305 304 305 305 305 305 304 305 305 305 305 304 305 305 305 305 305 304 303 302
301 293 296 292 289 292 287 285 285 286 284 289 298 302 305 306 304 301 294 290 298 298 297 293 291 291 291 292 292 292 294 290 286 288 294 297 298 299 300 301 302 302 302 303 304 304 304 304 304 305 305 304 304 305 305 305 305 305 304 304 304 303 303 304 303 304 304 304 304 304 304 304 304 303 303 304 304 304 304 304 305 304 306 304 302 302
301 302 298 294 290 291 288 286 285 284 287 295 298 302 305 306 303 302 295 287 294 296 296 294 292 292 292 291 292 293 294 288 285 288 293 296 297 299 298 299 300 301 302 303 302 302 303 304 304 304 304 304 303 304 305 305 304 304 303 303 303 303 302 302 303 304 304 304 304 304 304 304 303 303 302 301 301 302 302 303 303 304 305 304 303 302
298 295 295 292 289 291 289 287 285 288 286 296 300 303 304 306 306 301 288 287 294 296 296 295 293 293 293 293 294 294 294 287 286 290 295 296 297 298 299 299 299 301 301 302 303 303 303 304 303 303 302 302 303 304 304 304 303 303 302 302 303 302 302 302 303 303 304 304 304 304 303 303 303 303 302 301 301 301 302 302 303 303 303 303 302 302
293 293 294 289 290 290 288 287 289 289 295 301 301 304 304 307 302 290 285 291 296 297 297 296 295 295 295 294 295 293 295 295 293 295 297 297 297 298 299 301 301 301 301 301 301 302 302 302 302 301 301 302 302 303 303 303 303 302 302 302 301 301 302 303 304 304 303 303 303 303 302 302 303 303 303 303 302 301 301 302 302 302 302 301 302 302
292 293 292 292 290 289 290 288 288 290 297 302 303 304 306 300 289 289 295 300 298 296 297 297 296 296 296 296 294 293 293 295 296 296 296 297 297 298 299 299 300 301 301 302 302 302 302 302 302 302 302 302 302 302 302 302 302 301 301 301 301 302 303 303 303 303 303 302 302 302 302 302 302 303 303 303 302 300 299 300 301 301 301 300 300 300
292 289 289 289 290 292 290 287 286 283 292 303 303 301 303 293 292 297 298 298 300 298 298 298 298 297 297 294 295 294 294 295 295 295 296 297 297 297 298 298 299 299 299 300 301 301 301 301 301 301 301 302 302 302 302 302 301 301 301 300 302 303 303 303 303 303 303 303 302 302 302 302 301 302 302 302 302 299 298 298 298 299 299 299 299 298
298 289 288 290 295 288 288 285 285 292 298 304 302 293 300 301 301 301 299 297 299 299 298 298 297 297 297 295 294 294 295 295 295 296 296 297 297 298 299 299 300 299 300 301 301 301 301 300 300 301 301 301 302 302 302 302 300 301 300 300 303 303 303 303 303 303 303 302 302 302 302 302 302 302 301 301 301 300 298 297 298 297 297 297 297 296
298 296 296 289 293 290 289 291 297 301 301 303 303 302 302 303 303 303 301 300 299 299 300 297 296 297 297 296 295 295 295 295 295 296 296 296 297 298 298 299 298 299 299 299 300 301 301 300 300 300 300 301 301 302 301 301 301 300 300 302 303 302 302 302 302 302 302 301 302 302 301 302 302 302 301 301 301 299 298 297 297 296 296 296 295 295
300 300 299 296 293 298 299 299 300 300 301 301 303 304 303 303 303 303 302 299 300 300 299 297 297 297 297 297 295 295 295 296 296 296 297 297 297 298 298 298 299 300 300 299 300 300 300 300 300 300 299 300 301 301 302 301 301 300 301 302 302 302 302 302 302 302 301 301 301 301 301 301 301 301 301 301 300 300 299 297 296 295 295 295 295 294
301 303 299 293 296 293 287 299 298 298 300 301 301 303 303 302 302 302 301 300 300 300 299 299 299 298 298 298 297 296 296 296 296 296 297 297 297 297 298 298 298 299 299 299 300 300 300 299 299 298 299 299 300 300 300 300 301 302 302 302 302 302 302 301 302 301 301 301 301 302 301 301 301 300 300 300 299 299 299 298 296 295 294 294 294 294
296 303 297 297 295 291 290 296 299 300 301 302 301 300 300 301 301 301 301 301 300 301 300 299 299 298 298 297 297 296 296 297 296 296 296 296 297 297 297 298 298 299 300 300 300 300 299 299 298 298 298 298 300 300 300 300 299 300 301 301 302 301 302 301 300 300 300 300 301 300 300 301 295 298 300 299 298 297 298 298 297 294 293 293 293 292
300 301 291 296 292 294 297 297 298 299 299 300 301 301 301 301 300 300 300 300 299 298 298 298 299 298 298 297 297 296 296 296 297 297 297 297 297 298 298 298 299 299 300 299 300 300 299 299 298 298 298 299 300 300 300 300 301 300 301 301 301 302 301 301 300 301 299 299 300 301 301 300 300 300 300 298 297 296 295 295 297 296 294 293 292 291
299 294 297 294 289 289 290 294 297 291 290 296 298 300 300 301 300 299 299 298 298 297 297 296 297 298 298 298 298 297 296 296 297 298 297 297 297 298 298 298 299 299 299 299 299 299 299 300 299 299 298 299 300 300 300 300 300 301 300 300 300 300 300 300 300 300 299 299 298 299 300 300 299 300 299 300 298 296 295 289 289 292 295 293 291 289
297 298 297 291 291 290 296 298 300 299 298 298 298 299 300 301 300 298 298 297 298 298 298 297 296 296 297 298 299 298 297 297 297 298 297 297 297 298 299 298 298 298 298 299 299 299 299 299 300 299 298 299 300 299 300 300 300 301 301 301 301 300 299 299 298 298 298 298 298 297 300 299 298 299 299 299 299 299 296 296 294 289 288 289 290 289
Wind_Speed
10 14 15 18 16 17 19 19 17 18 16 15 14 14 15 13 13 18 15 19 20 17 15 17 18 15 13 11 11 11 9 11 9 11 12 13 11 10 11 12 12 9 8 7 9 9 10 10 10 10 10 10 10 9 10 9 7 6 4 3 5 4 4 4 3 3 2 1 2 1 2 4 5 6 5 4 5 5 5 5 6 6 5 5 5 4
14 15 18 19 19 19 20 18 17 19 21 16 13 15 13 16 13 15 15 20 19 13 15 17 16 14 13 13 13 12 12 11 12 10 10 12 10 9 12 12 11 4 7 9 9 9 11 9 11 10 9 9 10 9 9 8 7 7 5 4 4 4 4 4 4 4 1 2 2 4 5 4 4 5 4 5 5 6 5 6 6 5 5 5 5 5
17 20 19 19 18 18 17 19 18 20 20 19 14 11 13 13 15 14 17 22 17 17 12 18 11 13 12 11 10 9 7 6 7 9 9 11 8 13 13 10 7 8 10 10 10 9 10 11 11 9 7 8 8 9 8 7 7 7 6 6 6 5 4 2 2 3 3 3 2 2 2 3 3 3 3 4 3 4 4 4 5 6 5 5 4 4
16 17 19 19 18 19 18 19 19 19 18 15 15 13 13 14 14 12 15 21 18 13 11 16 13 9 10 9 9 11 10 7 9 10 13 17 16 15 13 7 5 7 7 6 10 10 10 11 9 9 8 8 7 7 7 7 7 5 5 5 4 3 3 3 3 3 3 1 1 2 3 3 4 4 3 3 3 4 4 5 5 5 3 4 4 4
16 12 16 18 19 20 20 19 18 15 14 17 17 16 14 15 16 14 12 17 18 16 15 19 13 10 9 10 10 9 8 7 6 8 14 12 13 15 12 8 1 7 6 8 10 10 10 11 10 9 8 7 8 7 8 7 6 4 5 5 4 3 2 1 1 2 3 3 4 4 4 4 3 4 5 5 5 6 6 6 5 5 6 7 6 5
17 16 18 20 21 21 21 17 18 16 14 14 18 18 12 16 19 19 13 16 12 14 17 14 9 9 13 13 11 10 10 10 8 7 8 13 11 17 16 10 6 4 5 10 10 10 10 11 10 9 8 8 8 8 7 6 5 4 3 3 3 2 1 1 1 1 0 3 3 3 4 4 5 5 5 6 5 4 5 6 4 4 6 7 6 6
13 17 19 21 22 21 22 17 19 20 14 13 13 17 16 18 19 15 14 13 12 13 15 17 12 7 10 13 14 12 11 12 10 8 9 8 9 11 13 10 11 10 9 10 11 11 11 11 11 11 11 11 10 8 7 6 5 5 4 3 2 2 1 1 1 2 0 2 3 3 3 3 3 4 4 2 2 1 2 1 2 4 5 7 6 5
15 20 19 21 22 20 19 18 18 21 15 13 12 18 18 20 18 17 17 15 11 12 13 18 11 9 11 13 16 16 14 13 11 11 13 10 12 13 12 12 13 12 10 10 11 11 11 11 11 10 9 10 9 7 7 5 5 6 5 4 4 3 3 2 3 2 3 3 3 3 3 3 4 3 3 3 2 1 1 2 2 2 3 5 5 5
18 18 21 21 21 17 18 18 17 19 16 12 14 17 18 20 16 15 15 14 12 11 12 14 17 10 9 12 17 19 18 15 10 11 13 14 13 12 12 12 12 12 12 12 10 11 11 11 11 10 10 9 10 8 8 7 6 5 6 6 6 5 5 5 5 5 4 4 5 5 5 5 3 4 3 4 3 2 1 2 1 2 2 1 3 5
14 17 20 20 18 16 16 18 17 19 17 14 17 15 17 17 18 15 15 16 13 12 13 16 16 9 10 12 14 16 15 14 14 12 12 13 12 11 11 11 12 11 11 11 12 11 11 10 10 9 9 9 8 7 7 7 7 7 7 8 7 8 7 7 8 8 8 8 6 5 5 6 5 5 4 4 4 3 1 2 2 2 1 2 2 4
15 14 16 15 17 16 16 17 19 19 18 16 19 16 16 16 12 10 12 12 9 9 14 17 20 17 9 10 12 15 13 13 10 9 11 12 12 12 11 10 10 10 10 10 10 11 11 9 9 8 10 9 8 7 8 8 7 7 7 8 9 8 7 8 8 9 9 8 8 7 8 8 8 7 6 5 5 4 5 3 2 1 2 2 2 2
17 19 17 15 16 13 17 18 18 15 17 21 12 12 11 12 12 10 10 11 6 9 16 19 17 19 12 11 13 9 10 18 17 15 14 13 12 10 10 10 10 10 9 10 10 10 10 10 9 9 9 9 8 8 7 6 6 6 6 7 8 7 8 8 8 9 9 9 9 9 10 8 7 7 7 7 6 5 5 5 4 2 1 1 2 3
19 17 14 15 18 23 19 16 15 18 19 18 14 11 12 9 5 8 12 8 11 11 14 19 19 15 18 9 16 16 19 18 14 14 15 13 12 12 11 10 9 9 9 9 9 9 9 8 7 8 8 8 8 7 7 7 5 6 6 7 7 7 7 7 8 8 9 9 9 9 10 10 8 8 7 6 7 6 5 5 3 3 3 5 3 2
13 16 19 19 18 14 15 16 16 17 17 17 16 13 14 12 10 6 11 7 9 14 14 16 17 12 8 8 7 12 20 18 17 17 15 14 13 13 11 9 8 8 9 9 9 8 8 8 7 8 8 8 7 7 6 5 5 5 5 6 6 7 6 6 6 7 9 10 10 10 10 9 9 9 9 7 6 6 5 5 5 3 2 4 5 5
14 16 19 19 12 16 19 17 17 14 16 16 15 15 13 12 10 8 12 11 12 12 14 14 13 2 9 4 12 15 15 20 17 16 15 14 13 13 11 10 10 10 8 8 8 8 8 8 9 7 7 6 6 7 6 5 6 6 6 6 6 6 7 7 7 7 8 8 9 10 9 9 9 9 9 8 6 7 7 6 6 5 5 4 5 5
20 12 15 19 13 21 20 19 17 17 15 14 14 13 14 13 9 11 6 11 12 11 9 8 2 3 7 9 11 14 17 16 17 16 15 14 11 12 11 9 9 9 9 8 9 9 9 8 8 7 6 6 6 7 5 5 4 4 3 3 6 9 9 10 9 8 6 5 4 6 8 9 9 9 9 8 7 6 6 5 5 6 5 4 3 4
16 14 16 17 18 20 22 19 19 19 13 13 14 15 15 15 13 2 3 7 5 3 4 7 7 7 5 7 12 13 15 15 14 15 14 14 12 11 10 9 9 8 8 8 8 8 9 8 8 7 7 6 5 4 4 5 5 4 4 7 10 10 10 9 10 9 8 7 6 6 7 8 8 9 10 9 9 8 6 5 4 4 5 5 4 4
11 12 18 18 23 18 20 20 20 19 13 10 13 14 13 14 13 7 6 3 2 7 3 7 12 10 8 2 9 13 13 13 13 14 15 13 12 11 10 9 8 8 9 8 8 9 8 8 8 7 6 7 6 6 5 5 4 4 6 6 7 9 9 9 9 8 7 9 8 7 8 7 7 8 9 10 9 8 7 7 6 5 5 6 6 5
14 11 14 20 21 18 19 19 19 18 20 14 15 14 13 8 13 9 4 7 9 8 5 9 16 13 10 9 10 15 15 14 14 14 14 13 11 11 11 11 10 9 8 7 7 7 7 7 6 6 6 6 6 6 5 5 6 6 5 1 7 8 8 7 5 5 5 6 6 6 8 8 7 7 9 9 10 9 9 9 8 7 6 5 5 5
10 7 11 17 19 18 17 16 13 15 19 20 14 15 14 8 10 7 5 6 9 7 6 7 11 5 8 12 19 18 18 17 16 14 14 14 12 11 10 9 9 8 8 8 7 7 7 7 7 7 6 7 7 6 5 5 5 6 5 8 8 8 9 7 6 4 4 4 5 6 7 7 8 8 9 9 10 10 10 10 10 9 8 7 7 5
7 8 7 14 20 15 15 13 16 17 17 17 13 14 12 7 8 11 9 12 9 7 8 6 6 6 3 13 19 21 21 19 17 15 13 13 12 11 11 9 9 9 8 7 7 7 7 7 7 7 7 6 6 6 5 5 6 4 5 3 9 11 9 7 5 4 4 4 4 6 7 7 7 8 8 8 9 10 11 11 10 9 9 7 6 7
4 7 5 12 15 14 14 17 18 20 19 17 15 14 16 15 13 15 12 12 11 8 6 7 4 6 3 3 13 19 20 18 17 18 14 14 13 12 10 10 10 9 9 8 7 7 6 7 8 6 7 8 7 6 6 6 6 9 8 10 11 10 9 8 9 6 6 7 6 6 7 7 7 7 8 8 8 9 10 11 10 10 10 9 7 6
5 4 6 8 13 15 19 19 18 20 19 18 15 12 15 12 11 10 8 9 11 10 10 8 5 1 5 7 5 14 15 17 18 17 15 13 13 12 11 11 10 9 8 7 7 7 6 5 6 8 8 8 7 7 7 7 7 7 9 9 8 9 9 9 8 9 6 6 7 9 8 7 5 6 7 9 8 8 9 10 11 11 11 10 10 9
2 4 10 9 10 13 17 18 18 18 16 17 18 17 15 13 13 9 8 5 7 7 8 3 3 3 7 7 9 10 15 16 14 16 17 14 12 12 12 12 11 9 8 7 6 5 6 6 6 7 7 8 7 7 7 7 8 7 7 7 6 9 10 10 8 7 7 7 5 7 7 8 8 8 5 9 8 11 10 10 9 10 11 11 10 11
6 7 11 10 8 10 13 15 17 18 14 12 13 14 15 16 19 11 8 2 3 5 7 3 4 3 5 6 10 17 18 16 16 14 14 14 11 12 12 11 10 10 9 9 9 8 8 8 7 7 8 8 8 8 6 8 8 8 7 7 10 9 7 6 6 8 9 9 8 8 7 8 8 10 11 10 9 11 10 10 10 9 11 11 12 13
6 9 10 11 13 12 12 12 14 15 17 12 15 18 22 19 15 11 6 5 4 3 12 4 6 8 9 7 14 17 17 16 15 15 13 13 13 12 11 11 10 10 9 9 9 9 9 8 8 8 8 8 8 7 8 8 8 8 9 9 5 7 8 10 9 8 9 10 10 10 10 9 9 10 11 11 10 11 11 11 11 11 10 11 12 12
5 8 9 9 10 10 12 12 13 15 13 15 18 21 20 17 15 12 3 5 6 5 3 10 17 15 13 10 14 16 16 17 16 15 14 13 13 12 12 11 10 9 10 10 9 8 9 9 10 9 8 8 8 8 9 9 9 10 9 9 8 7 7 6 7 10 9 8 10 10 10 11 11 10 10 11 11 11 12 12 12 13 13 12 12 12
7 7 13 14 14 9 12 17 18 21 19 20 20 18 18 18 14 12 7 6 6 6 5 4 24 20 18 17 17 19 17 16 15 14 14 13 13 12 12 12 11 11 10 9 9 10 10 10 10 9 9 9 9 9 9 9 9 9 9 9 10 11 9 8 8 8 9 9 9 10 11 10 10 11 12 11 11 11 11 12 12 12 12 12 13 12
9 5 6 3 4 8 10 16 19 21 21 17 17 16 17 17 16 9 5 4 4 2 7 11 17 21 14 14 16 16 16 15 16 15 13 14 13 13 13 13 12 12 11 11 10 9 9 9 9 8 9 9 9 9 8 8 9 8 9 9 9 9 9 8 9 11 10 10 11 10 10 10 10 10 11 12 12 12 13 13 12 13 13 12 13 11
7 4 5 8 9 8 10 15 17 18 17 17 17 11 14 14 15 7 1 12 16 14 20 18 17 18 12 12 12 11 11 13 13 14 13 14 14 14 14 13 13 12 11 11 10 9 9 9 8 8 9 9 10 11 10 9 10 10 9 9 10 9 9 6 7 10 11 12 11 11 12 11 11 11 11 12 12 13 13 13 13 13 13 14 13 13
7 4 9 6 2 3 11 18 19 18 17 17 19 15 8 10 16 24 18 19 23 19 21 22 20 13 7 10 12 12 12 12 13 15 15 14 15 14 14 13 13 12 11 10 9 10 9 8 8 9 10 10 10 10 10 9 10 9 9 9 10 9 7 9 13 11 12 13 12 12 12 11 12 12 13 12 12 12 13 14 12 13 14 14 14 14
2 1 2 7 4 5 8 4 8 6 13 6 10 17 16 10 11 10 12 10 16 18 21 20 14 12 11 14 13 12 14 15 15 14 12 10 13 14 14 13 13 12 10 10 10 9 9 9 9 10 10 11 10 10 10 9 10 9 9 10 10 8 8 11 11 11 12 12 12 13 13 12 13 13 13 13 14 14 13 13 14 14 13 13 14 13
6 5 2 1 5 6 4 13 10 8 13 10 8 9 9 17 15 15 14 12 16 22 16 10 9 11 14 14 16 14 12 12 11 10 10 11 12 13 13 13 12 11 10 9 10 9 9 9 9 9 9 9 9 10 10 9 9 10 10 10 9 8 8 11 11 12 13 12 13 12 11 12 13 13 13 13 14 12 13 14 14 14 13 14 13 12
8 9 3 4 3 4 9 9 7 4 8 4 1 8 7 11 11 13 11 12 9 5 5 9 17 16 16 15 17 15 11 10 9 8 7 7 10 12 12 12 11 10 10 9 9 9 9 8 7 6 5 6 9 9 5 5 8 8 8 7 9 9 11 12 12 13 12 12 12 12 13 13 13 13 13 13 13 13 14 14 14 12 10 10 11 12
10 6 1 4 3 4 5 8 3 3 2 3 5 3 12 15 16 18 16 15 14 17 22 22 20 18 14 13 16 15 12 11 10 9 8 7 9 10 11 11 10 10 10 9 10 9 7 6 5 7 11 12 11 10 10 11 9 2 6 2 9 8 11 11 13 12 11 11 13 13 13 12 13 13 12 13 12 11 12 12 11 12 11 10 12 12
7 5 3 2 2 5 3 2 8 3 2 2 7 14 16 19 13 15 15 14 13 12 18 20 19 18 18 18 17 16 15 14 12 10 8 7 7 9 10 9 9 9 8 8 9 5 5 7 10 10 10 10 10 10 11 13 13 15 12 11 12 13 12 12 12 12 11 11 11 12 13 13 12 11 11 12 12 12 12 11 11 10 9 9 9 9
11 7 4 4 1 4 2 2 2 4 6 4 6 9 7 7 5 5 8 8 8 10 13 19 21 19 19 17 18 18 16 14 13 8 6 5 6 8 9 9 9 9 7 7 7 9 11 10 10 10 9 9 9 9 9 9 9 10 11 12 10 10 11 11 10 10 10 11 11 11 12 13 13 12 11 11 11 11 10 11 11 9 8 9 10 10
10 6 7 5 3 5 5 6 2 1 2 5 4 5 3 7 10 13 11 6 6 11 13 15 17 18 19 17 17 18 14 13 9 6 4 6 6 7 8 7 8 9 7 7 8 8 9 10 9 9 8 8 9 8 8 9 9 9 10 10 10 10 11 11 11 11 10 10 10 11 11 12 13 12 12 12 13 12 10 9 9 9 8 9 10 11
12 9 5 2 5 8 6 5 4 4 2 2 8 9 6 7 12 12 7 4 7 12 12 14 16 16 17 17 17 14 9 7 7 8 8 8 8 8 9 7 8 8 8 8 8 9 8 8 9 9 8 8 9 8 8 9 9 9 9 10 10 10 10 11 10 9 9 9 9 10 10 10 11 11 12 13 13 12 13 11 9 8 8 8 8 9
11 4 3 3 5 3 3 4 4 3 2 4 10 8 8 3 4 3 5 6 13 13 14 15 16 16 15 15 13 7 5 9 11 10 12 12 11 10 9 9 8 9 9 9 8 8 9 8 9 9 9 9 8 8 9 9 9 9 9 10 10 11 11 10 9 9 7 7 7 7 9 9 10 9 9 9 8 10 10 9 10 10 9 8 8 8
3 3 4 6 5 6 7 4 5 3 3 5 7 7 6 4 3 5 3 6 15 15 14 14 15 15 14 12 7 3 6 8 14 16 14 13 13 11 9 8 9 10 10 9 8 7 8 8 8 9 9 9 9 9 9 8 8 9 9 9 10 10 10 10 9 9 8 8 9 11 13 11 10 10 11 11 12 13 12 11 10 10 10 9 9 9
2 2 4 2 3 4 5 7 5 4 2 3 5 5 4 4 4 2 4 12 17 17 15 15 16 15 13 8 8 11 14 18 18 16 15 14 13 12 11 11 11 10 10 9 7 8 8 8 7 8 10 10 9 9 7 7 8 10 10 9 10 10 9 10 10 9 10 10 10 10 11 11 11 9 9 10 12 13 12 12 12 12 12 10 11 12
3 1 3 2 2 4 3 5 4 4 2 4 4 4 1 2 3 9 13 14 14 16 17 15 13 12 11 14 15 17 19 19 17 16 15 15 14 13 11 10 10 11 10 10 10 10 8 8 8 10 9 8 9 9 7 6 9 9 8 9 8 7 8 8 8 9 9 9 9 8 9 9 11 9 9 9 11 12 12 11 11 11 11 11 11 12
6 1 2 2 3 3 5 3 2 3 7 1 2 2 6 8 11 12 13 16 14 14 15 14 12 13 15 18 18 16 18 19 17 17 16 14 13 12 12 11 11 10 10 10 10 9 9 10 9 8 9 9 8 7 6 8 9 8 9 10 7 6 7 8 8 7 8 7 8 8 9 9 10 10 9 9 8 9 10 11 10 10 10 10 10 10
6 4 3 4 5 3 4 5 7 7 7 7 10 12 13 14 13 13 13 14 15 13 12 11 14 15 16 18 18 19 17 16 17 16 15 14 13 13 13 12 11 9 10 9 9 9 9 9 10 10 10 8 6 5 8 8 9 8 8 7 8 9 8 8 7 6 6 7 8 7 9 7 8 10 10 9 9 9 9 10 10 10 10 10 10 10
11 15 13 13 9 13 11 8 8 9 10 11 11 12 13 13 13 14 16 14 12 13 11 13 15 17 17 17 18 16 17 18 17 16 15 15 14 13 11 12 11 9 9 9 10 10 9 9 9 10 9 6 7 10 6 7 7 7 5 7 8 8 8 7 7 7 8 8 7 8 9 9 8 9 9 9 9 8 8 8 9 8 9 9 9 9
12 10 8 11 12 6 6 5 11 11 11 13 13 14 13 12 12 12 13 14 14 14 15 15 16 16 17 15 16 18 19 17 17 16 15 14 14 13 12 12 10 9 10 11 11 10 9 8 9 9 7 8 8 7 8 8 6 4 7 9 8 8 7 6 5 6 5 6 6 5 6 6 5 6 6 7 7 8 7 7 7 8 8 8 9 10
11 12 12 11 10 7 9 11 10 11 12 12 11 12 14 14 14 12 12 13 15 16 16 17 16 17 15 16 17 18 18 17 17 16 15 14 13 12 12 11 11 11 10 10 11 10 8 8 10 8 7 8 7 7 8 9 8 8 9 8 7 6 5 5 5 6 6 6 5 5 6 5 6 6 5 6 6 6 6 6 6 7 7 7 7 7
8 7 5 8 11 12 13 12 12 13 13 12 12 11 11 11 14 15 16 18 18 19 19 17 13 14 15 17 18 17 18 16 16 16 16 14 13 12 12 12 11 11 10 10 9 8 8 9 9 8 9 9 8 7 8 8 7 9 9 8 8 7 5 4 4 6 7 6 4 4 4 5 6 5 5 5 6 5 4 4 4 5 5 6 4 5
11 12 13 14 13 8 8 12 14 10 8 9 12 13 14 15 16 18 18 19 19 19 19 19 16 13 16 17 16 15 17 16 16 16 15 14 13 13 13 12 11 11 10 9 9 9 9 8 7 7 8 7 7 8 8 7 6 7 7 7 7 8 10 9 5 6 5 5 6 5 5 5 5 6 6 4 5 4 5 6 8 6 4 3 4 7
8 9 9 6 8 9 14 15 8 11 13 11 14 14 15 15 16 18 18 18 18 17 18 20 20 18 16 15 14 15 16 16 16 15 15 13 13 12 12 12 12 11 10 10 10 10 11 9 9 11 9 6 6 7 8 7 6 5 6 8 8 9 8 9 7 6 6 6 6 5 3 5 5 6 5 4 4 4 5 3 4 7 7 5 3 4
Wind_Direction
180 205 201 206 208 204 212 219 217 226 232 217 212 210 222 226 220 227 196 169 184 197 198 210 214 190 179 181 171 194 160 205 160 151 167 176 177 169 161 152 133 110 108 104 99 95 91 86 82 77 75 75 74 75 81 82 81 85 97 122 115 131 168 166 173 166 133 143 123 9 227 208 227 230 224 201 183 210 221 209 210 211 208 206 198 197
201 207 214 209 209 208 207 217 219 230 243 239 217 211 217 225 226 219 175 163 177 211 188 218 206 165 175 186 180 179 184 196 163 169 181 171 164 148 113 83 76 106 123 97 82 78 85 81 76 71 72 74 76 74 71 77 100 114 114 78 62 45 14 12 355 15 87 213 198 186 202 202 219 230 217 223 215 213 217 200 211 214 207 203 202 195
208 212 210 210 208 214 210 211 219 228 238 247 237 207 221 218 234 209 173 163 177 208 180 205 164 168 174 171 155 145 181 133 149 158 183 173 145 88 75 71 68 51 49 70 85 82 81 82 79 77 72 68 68 67 64 61 67 70 95 116 126 145 192 120 235 221 268 255 228 217 229 231 249 243 254 256 240 205 209 220 219 214 212 215 193 190
206 216 209 207 205 213 213 211 212 224 236 240 245 220 209 220 214 205 188 165 177 200 187 190 151 141 150 156 155 185 182 149 178 178 83 80 99 112 111 122 108 100 101 83 75 77 80 77 78 81 78 74 71 71 72 66 62 62 61 67 74 106 133 154 143 208 185 153 319 261 249 226 218 250 248 240 256 247 227 240 234 237 228 228 212 206
211 203 202 207 205 208 215 209 208 217 223 234 243 246 199 220 216 229 175 171 174 195 222 187 155 160 171 166 170 161 121 140 130 161 107 93 99 109 105 88 87 95 106 94 91 82 79 79 76 77 76 75 71 67 66 60 60 59 58 56 58 45 37 287 101 273 143 176 206 211 226 227 224 221 227 242 236 220 219 224 218 216 228 229 211 214
210 206 191 207 206 205 214 209 207 211 223 222 234 247 224 206 216 221 169 167 170 189 229 183 120 179 179 177 168 160 167 156 134 118 131 115 108 107 110 113 111 110 120 96 90 88 85 85 82 73 74 71 71 68 62 64 58 64 72 85 80 115 337 317 297 273 340 230 249 209 221 227 210 230 211 213 228 214 201 217 216 212 217 228 221 213
212 199 196 201 205 203 210 217 201 210 218 222 208 234 234 224 215 201 155 176 191 201 194 168 179 164 178 189 174 155 163 154 160 166 125 126 138 120 120 148 132 129 105 99 92 84 82 80 72 60 50 52 55 56 57 55 44 49 48 34 31 87 171 300 331 301 156 261 248 268 278 273 277 281 271 281 294 282 283 255 216 216 204 225 225 215
213 198 197 200 205 202 204 214 203 204 215 220 199 221 240 235 213 195 160 185 201 209 192 167 182 176 179 196 179 166 175 166 161 162 149 110 90 90 95 106 106 97 92 85 77 70 66 64 66 64 58 53 50 42 46 49 46 34 32 25 21 29 17 360 343 339 333 316 309 303 298 293 286 282 299 308 303 288 231 269 261 245 206 210 230 214
205 199 198 196 204 203 206 208 202 202 216 219 197 221 228 238 233 197 168 172 216 200 220 191 181 195 189 185 174 172 180 163 151 150 127 116 108 98 93 93 89 87 87 84 81 74 71 68 67 66 60 53 43 39 31 16 22 27 28 20 17 18 17 4 356 337 337 327 315 315 316 304 306 313 320 314 307 302 311 281 273 261 281 226 228 241
198 216 194 201 198 207 205 202 210 197 213 221 217 201 230 235 247 208 168 179 204 206 220 206 189 212 195 183 176 179 176 164 156 134 126 116 108 103 102 93 91 90 84 81 80 80 73 71 69 65 67 58 48 35 32 23 22 23 20 13 18 18 14 360 2 352 353 345 326 313 312 319 328 333 318 313 307 302 294 290 266 267 239 227 206 242
193 208 213 198 201 207 201 203 213 200 207 216 235 194 221 228 247 232 196 183 189 217 224 220 199 200 195 180 177 187 169 159 127 121 117 111 109 108 100 91 88 87 84 84 85 80 81 78 75 66 64 60 51 42 32 25 20 14 15 8 11 16 11 2 358 357 354 347 347 348 350 347 338 333 321 309 310 330 325 304 281 229 237 210 216 198
197 189 224 194 196 204 205 202 209 207 189 223 230 206 208 228 234 240 199 183 189 215 220 214 215 207 226 175 189 184 124 132 134 135 134 127 118 108 97 91 89 88 90 90 87 83 78 78 72 69 62 55 52 45 39 26 18 18 16 10 4 21 9 0 354 354 353 352 353 355 348 346 347 336 331 324 322 316 313 303 313 326 290 237 213 198
206 194 207 202 190 207 196 205 195 203 187 216 229 220 200 204 226 210 184 180 207 215 204 210 200 205 227 180 181 178 130 136 134 137 140 131 122 110 95 97 96 93 92 89 87 87 86 78 74 69 68 61 51 47 37 33 24 15 16 8 13 21 17 5 358 356 354 354 353 353 348 348 342 337 336 330 321 317 314 326 327 328 319 307 271 220
207 201 195 220 193 200 192 202 184 201 192 208 214 211 195 199 206 194 184 196 212 226 227 218 190 226 176 54 4 143 126 133 140 133 125 123 116 107 105 100 95 88 87 87 86 85 83 80 76 65 60 54 51 45 43 44 32 21 13 11 15 19 21 5 10 359 1 357 353 352 351 346 343 340 338 334 328 321 312 316 322 331 317 306 309 307
196 190 202 186 186 183 212 205 201 197 197 207 211 211 202 209 198 196 187 191 207 204 213 205 192 239 118 113 87 87 115 104 108 115 111 111 112 108 109 106 98 99 99 95 91 86 83 79 75 72 62 58 47 39 31 34 36 21 14 6 16 8 20 12 16 15 6 1 356 352 350 348 347 341 334 328 333 332 330 331 332 334 329 322 311 316
207 207 192 195 178 180 215 209 210 186 208 207 208 216 200 214 203 218 190 214 203 198 204 184 84 34 83 104 84 87 92 101 109 112 114 107 112 115 106 106 107 107 104 95 90 83 75 70 73 70 71 56 45 41 26 37 43 29 1 354 22 17 31 18 7 8 1 358 360 356 352 352 341 334 328 325 332 338 336 329 317 302 279 271 287 301
198 199 181 191 212 183 208 203 215 187 203 187 211 210 200 205 216 177 236 268 13 306 197 97 130 72 105 114 114 107 108 114 115 115 114 115 117 112 112 115 111 106 103 101 90 82 75 66 58 57 55 65 57 48 37 40 37 14 354 33 33 24 22 19 8 5 352 352 5 11 355 348 338 334 330 327 332 340 325 308 290 284 298 292 270 263
192 189 178 187 208 200 197 213 222 201 209 186 217 199 208 221 225 184 212 166 233 229 173 129 127 146 159 180 146 127 122 125 124 119 117 120 118 117 119 116 116 111 103 97 87 77 73 67 62 58 51 52 48 43 33 33 60 22 25 37 43 40 24 25 15 357 348 2 6 3 352 345 345 332 329 328 333 333 322 326 318 308 307 309 309 305
221 193 185 186 201 195 191 210 223 209 202 212 209 171 205 180 215 188 214 199 204 223 176 134 149 161 185 134 168 151 146 138 132 130 130 132 130 125 125 125 116 102 94 85 78 74 69 66 67 62 57 57 53 47 42 27 28 34 330 125 87 60 40 30 16 5 4 12 2 351 342 349 346 345 335 333 336 335 332 337 335 329 322 313 315 307
224 218 174 190 201 180 188 206 213 198 197 227 209 200 210 218 220 189 189 221 209 217 203 135 171 174 194 151 170 164 153 146 139 144 138 132 130 127 128 123 111 108 99 88 81 76 73 72 68 61 59 58 54 53 51 55 44 30 9 353 68 52 45 22 11 15 21 33 11 356 353 349 346 351 342 341 340 336 336 342 340 339 333 333 325 315
213 221 193 177 202 187 195 198 210 192 188 200 196 200 202 241 216 236 183 222 205 211 208 143 191 167 150 163 171 166 159 147 145 140 137 132 129 129 124 120 115 104 95 87 84 80 76 76 73 72 70 63 58 47 47 45 42 21 354 353 59 47 30 20 350 7 44 35 26 16 3 352 348 352 348 348 346 343 347 342 340 342 337 327 312 312
229 181 194 178 195 197 202 198 217 202 193 202 201 197 201 205 211 209 207 195 218 215 211 177 176 105 70 324 171 156 158 144 142 135 131 129 127 123 121 116 109 103 93 89 83 81 79 73 76 82 71 62 52 47 48 44 38 30 17 14 31 38 21 17 356 9 37 29 10 22 358 17 359 358 351 346 352 353 350 344 338 334 335 332 330 310
219 178 164 194 192 194 203 192 214 205 199 204 209 218 213 210 224 209 227 189 216 217 227 208 125 92 44 9 80 137 142 137 133 128 128 129 126 124 117 108 101 96 97 98 97 96 94 86 81 70 71 71 62 46 41 49 42 39 26 21 28 30 28 12 4 353 30 33 23 21 7 2 5 353 349 359 354 357 356 349 344 341 339 339 333 326
54 198 161 197 214 202 204 196 208 231 207 198 201 219 206 215 214 225 223 198 207 206 217 173 94 112 46 33 98 119 109 115 125 125 127 124 124 119 112 108 108 109 111 112 107 94 83 87 77 78 68 62 58 51 46 46 46 41 40 31 27 39 29 17 360 348 4 26 38 24 15 3 4 339 10 15 360 356 2 356 348 346 339 339 333 327
191 177 172 172 197 206 208 188 192 216 233 216 203 213 227 214 213 223 237 99 239 218 235 116 145 151 109 81 107 118 123 127 127 126 125 124 121 116 112 113 117 117 115 110 102 96 91 80 77 69 65 58 55 57 46 49 45 39 38 27 30 35 31 2 353 15 16 8 13 25 18 8 7 351 19 12 4 0 358 357 351 349 350 350 347 343
206 160 184 187 184 186 191 185 185 199 212 212 206 207 223 218 208 197 202 193 223 211 222 118 97 110 122 113 120 124 125 124 127 129 125 122 121 118 121 124 120 117 112 109 104 95 85 82 78 74 66 60 56 53 55 50 45 42 38 37 24 31 33 12 11 9 13 15 8 8 12 14 8 11 13 8 6 4 0 358 359 356 355 354 351 347
198 167 197 204 202 197 203 197 192 201 197 206 203 209 211 224 239 237 183 195 206 170 218 127 133 138 134 146 139 134 131 131 132 129 125 123 122 123 126 124 123 120 114 108 99 96 94 86 77 68 62 60 51 45 49 45 39 38 34 23 21 29 44 21 10 24 19 12 15 6 6 9 13 8 15 10 10 6 3 2 360 359 359 357 356 354
197 185 197 213 214 203 214 206 186 198 201 209 204 204 210 216 230 227 198 207 185 233 78 178 138 143 159 155 143 139 134 131 129 126 127 127 129 131 129 123 124 120 114 108 100 92 89 84 72 60 54 49 53 45 45 52 42 38 31 26 15 21 23 16 18 15 16 19 17 12 7 12 12 12 11 10 14 8 5 5 4 2 359 360 3 0
189 197 141 223 271 230 249 218 198 194 207 203 216 201 193 213 235 241 182 217 156 252 129 175 144 135 140 133 134 133 132 132 133 129 132 133 129 131 131 127 122 115 110 104 98 92 83 71 65 62 54 51 50 47 46 47 43 38 34 34 29 21 19 17 14 20 14 18 18 13 6 14 17 13 11 11 13 12 9 8 6 5 2 4 5 3
207 145 163 191 213 232 274 257 218 199 191 197 215 226 196 196 230 258 223 107 104 113 126 131 115 117 119 119 117 120 115 117 121 127 132 135 135 134 127 122 119 115 102 92 87 81 72 68 67 61 55 51 49 46 42 43 41 36 34 30 29 19 19 7 28 29 16 18 15 13 10 11 15 13 14 12 14 14 12 11 9 8 7 7 6 4
235 144 155 144 94 252 258 252 209 203 196 196 206 216 209 189 102 91 88 95 104 111 118 119 116 107 89 87 95 95 104 112 121 133 135 134 133 127 123 118 112 107 98 96 95 85 75 67 62 61 58 52 48 46 40 37 40 37 38 33 29 21 358 10 37 22 25 17 14 11 10 12 12 12 16 13 14 17 16 14 12 11 10 9 7 7
142 15 258 163 147 244 241 23 335 285 217 163 57 31 31 57 94 92 104 112 113 123 124 119 117 128 128 116 106 111 121 127 130 131 131 130 128 125 120 116 111 105 99 94 87 82 75 65 60 60 58 53 48 46 43 38 41 39 38 37 27 12 4 43 35 30 26 18 13 13 13 15 12 13 15 13 15 17 15 13 15 13 9 8 7 8
140 134 167 154 185 189 141 52 353 96 90 70 30 28 39 70 75 74 73 96 122 135 133 148 149 130 132 130 125 128 125 121 120 120 122 126 122 122 117 111 109 100 89 91 86 79 73 66 62 61 59 61 55 48 45 46 47 41 36 36 27 357 17 43 35 31 27 19 15 12 16 19 15 14 16 17 15 15 14 14 14 13 10 10 8 7
131 146 156 188 183 195 122 115 270 235 160 104 356 323 39 62 59 77 60 69 64 55 82 108 125 129 132 133 127 129 121 117 113 108 111 115 118 114 112 105 104 99 91 87 84 78 70 67 64 57 52 68 69 67 78 114 101 76 40 44 38 8 33 40 36 32 27 21 19 20 20 22 17 17 19 17 17 16 16 15 15 13 12 8 9 10
143 152 135 42 203 135 50 134 183 192 77 283 308 32 102 85 75 80 78 74 84 90 94 105 122 131 133 125 124 117 101 89 83 85 86 98 111 113 110 111 105 100 98 95 90 84 84 79 69 53 42 37 37 24 2 8 4 21 79 63 77 50 37 40 38 33 28 25 25 23 22 22 20 18 18 17 16 18 19 18 17 17 12 12 10 10
142 156 98 45 23 68 109 188 187 113 310 298 75 91 105 100 96 77 65 58 71 91 111 117 129 128 124 121 116 113 106 95 78 59 58 65 81 104 112 105 102 95 98 110 106 125 102 67 53 55 48 34 36 36 23 8 17 23 25 7 28 46 47 41 37 33 28 26 25 26 24 22 20 17 17 16 15 16 14 16 22 21 13 15 16 13
163 153 141 123 310 128 124 88 48 133 142 112 142 138 137 140 171 130 105 63 95 115 121 122 123 123 122 122 121 119 116 104 90 72 49 75 88 99 108 112 113 119 103 71 57 62 64 66 61 56 55 48 41 45 40 36 32 36 23 25 40 38 45 46 37 32 27 23 24 27 25 23 20 16 14 13 16 16 16 14 12 15 13 16 18 14
168 171 171 161 153 139 125 112 113 129 177 172 159 161 144 84 86 105 103 103 102 110 116 121 127 131 129 129 131 133 134 98 86 101 117 126 125 118 101 91 85 80 94 106 85 67 62 67 72 64 58 59 56 50 53 45 34 33 35 32 35 44 48 45 40 34 30 22 21 25 26 26 23 19 14 11 13 10 15 18 15 9 8 18 20 14
171 160 159 181 150 148 154 143 140 155 360 118 154 165 129 118 126 126 101 117 156 136 140 136 135 137 139 142 147 159 153 114 127 139 146 135 124 116 115 111 101 104 103 97 96 93 83 74 72 76 74 69 68 63 61 60 47 42 43 37 32 31 48 50 45 41 33 27 24 26 28 27 30 27 24 23 18 11 6 7 12 10 12 18 20 20
167 117 141 211 177 155 140 134 94 50 45 133 147 153 135 146 170 216 224 181 169 157 152 150 144 146 146 150 157 180 169 141 152 150 148 144 135 130 125 124 124 119 105 95 87 87 95 94 91 86 80 74 72 71 68 63 62 57 46 43 36 28 31 41 50 46 46 37 31 35 31 26 32 34 25 31 35 25 15 6 5 4 21 21 19 18
83 126 176 172 183 145 116 77 108 88 61 104 144 161 160 163 176 215 204 120 153 151 152 151 146 148 146 151 178 158 61 99 123 135 140 137 135 132 128 121 118 114 111 106 102 107 93 87 81 84 86 79 68 61 59 65 71 65 61 51 42 33 24 25 33 37 38 34 32 35 34 25 21 19 18 21 30 26 12 7 12 7 10 19 18 22
101 148 158 151 169 178 135 114 94 108 360 313 129 64 67 197 210 163 77 127 135 140 146 148 145 145 150 148 97 97 108 112 123 130 134 133 130 124 123 123 119 109 99 103 104 94 95 96 100 88 72 68 74 77 69 60 64 64 65 59 51 41 32 26 29 31 29 31 35 43 42 32 23 19 23 27 39 33 21 13 11 9 11 17 17 13
16 103 139 126 15 62 81 108 145 131 181 292 110 100 17 286 78 107 117 120 133 133 142 137 139 141 122 107 108 114 117 121 127 130 130 130 130 127 126 130 129 125 124 120 115 105 104 104 87 74 75 72 65 59 60 62 67 68 71 68 67 61 48 36 29 33 34 30 31 38 46 45 37 35 30 29 43 41 27 21 19 17 13 16 20 16
359 77 88 74 331 129 133 117 56 67 124 173 205 113 57 88 122 123 126 122 130 132 131 133 121 119 120 119 121 120 122 125 127 130 131 132 129 131 136 129 121 125 127 112 109 117 107 89 93 98 78 68 62 64 63 56 60 59 60 62 70 75 64 53 38 33 37 37 34 34 37 33 33 28 28 41 45 46 35 24 21 22 19 18 20 20
7 39 57 107 2 26 68 96 98 85 92 82 84 95 103 110 118 123 120 123 129 128 121 119 124 122 121 124 124 128 127 126 130 134 131 129 132 131 128 121 113 111 117 130 114 98 100 102 90 85 84 78 74 63 61 57 61 56 63 64 61 56 55 56 49 35 40 44 41 36 38 42 46 33 15 18 33 45 38 28 22 22 19 19 23 22
122 109 100 89 84 96 68 65 95 97 100 94 86 97 104 111 115 127 127 124 121 126 127 124 125 125 126 129 126 126 128 132 130 129 129 130 129 124 121 123 128 130 112 101 99 102 99 90 83 78 77 83 81 71 63 68 67 67 68 79 73 63 55 53 59 51 39 41 44 41 39 43 51 46 30 28 27 37 48 36 25 25 18 18 19 19
159 152 107 105 141 107 89 106 97 105 109 104 104 102 102 107 108 111 121 124 129 132 128 128 125 126 129 130 127 128 131 133 129 130 129 128 130 132 129 126 130 129 130 117 113 114 103 101 96 88 80 74 68 67 60 57 51 60 76 65 66 70 70 61 67 65 48 47 38 40 47 66 63 59 49 35 36 33 36 44 42 26 26 22 17 17
90 92 96 102 104 98 129 123 114 108 105 110 114 117 117 117 116 119 124 128 130 128 124 126 128 128 131 129 131 131 131 132 131 131 132 133 132 133 135 133 124 120 115 107 96 90 102 98 93 103 105 89 77 68 67 57 39 36 61 68 70 86 89 88 80 68 60 46 45 35 35 52 114 97 64 64 44 35 32 30 54 51 26 21 13 9
97 105 88 110 101 103 107 117 122 114 107 109 109 109 116 119 118 120 127 125 125 125 126 127 130 130 131 131 132 131 130 133 134 137 134 135 134 133 131 125 124 122 117 116 122 120 95 91 93 85 78 78 78 81 71 66 54 44 37 32 43 36 55 91 82 81 71 55 39 48 46 44 31 62 115 95 79 65 40 19 13 55 64 30 21 12
89 96 110 110 114 136 147 145 139 132 132 117 113 120 123 121 122 121 126 126 128 130 130 127 123 124 128 131 134 134 133 136 140 138 131 129 130 127 127 125 124 117 116 111 103 102 102 101 108 97 82 75 77 69 71 79 70 57 68 78 60 30 12 11 46 64 70 64 43 30 47 39 44 45 43 83 123 111 81 62 54 35 58 75 24 18
76 141 159 134 146 151 144 149 133 116 118 118 119 121 122 123 128 129 130 131 131 130 131 129 129 131 133 133 132 132 130 133 134 131 126 125 127 131 128 128 128 133 139 139 134 133 137 139 106 76 63 41 47 88 96 90 64 62 64 56 73 86 47 27 15 25 35 50 61 45 31 44 44 44 50 46 47 116 143 130 64 52 49 40 357 343